User: anonymous   Login
Location: Unspecified
(0.0000°N, 0.0000°E)
Time: 11:03:10
(UTC+00:00)
Language:

Tiros 10 - Orbit

View from above orbital plane
View from above orbital plane
View from above satellite
View from above satellite

Ground track
Ground track

The orbit data is extracted from the following two-line orbital elements,

1 01430U 65051A   15064.16330195  .00000256  00000-0  92664-4 0  9993
2 01430 098.0742 252.2544 0055417 264.3398 095.1470 14.40018902602914
Epoch (UTC): 05 March 2015 03:55:09
Eccentricity: 0.0055417
inclination: 98.0742°
perigee height: 719 km
apogee height: 798 km
right ascension of ascending node: 252.2544°
argument of perigee: 264.3398°
revolutions per day: 14.40018902
mean anomaly at epoch: 95.1470°
orbit number at epoch: 60291

The dashed part of the orbit path shows where the satellite is in the earth's shadow,  

DLR